Location: Brompton
(51.4000°N, 0.5333°E)
Time: 04:35:49
(UTC+00:00)

USA 215 - Pass Details

Date: 26 September 2021
Orbit: 1093 x 1114 km, 123.0° (Epoch: 14 October)

Event Time Altitude Azimuth Distance (km) Brightness Sun altitude
Exits shadow 18:24:15 - 108° (ESE) 3,219 5.1 -6.7°
Reaches altitude 10° 18:24:57 10° 108° (ESE) 2,952 4.9 -6.8°
Maximum altitude 18:31:28 78° 23° (NNE) 1,130 3.3 -7.8°
Drops below altitude 10° 18:38:01 10° 299° (WNW) 2,973 6.8 -8.8°
Sets 18:40:31 0° 298° (WNW) 3,936 7.7 -9.2°
